Change the Weather History Date:

Wednesday, July 23, 2014

  Actual Average Record
Temperature  
Mean Temperature 73 °F 69 °F  
Max Temperature 92 °F 86 °F 99 °F (2007)
Min Temperature 54 °F 51 °F 46 °F (1999)
Degree Days  
Heating Degree Days 0 0  
Month to date heating degree days 3 27  
Since 1 June heating degree days 158 199  
Since 1 July heating degree days 3 27  
Cooling Degree Days 8 4  
Month to date cooling degree days 138 57  
Year to date cooling degree days 141 79  
Since 1 June cooling degree days 141 75  
Growing Degree Days 24 (Base 50)    
Moisture  
Dew Point 45 °F    
Average Humidity 48    
Maximum Humidity 80    
Minimum Humidity 15    
Precipitation  
Precipitation 0.00 in 0.02 in 1.77 in (1979)
Month to date precipitation 1.30 0.56  
Year to date precipitation 7.09 7.80  
Sea Level Pressure  
Sea Level Pressure 29.96 in    
Wind  
Wind Speed 7 mph (South)    
Max Wind Speed 15 mph    
Max Gust Speed 19 mph    
Visibility 10 miles    
Events      
T = Trace of Precipitation, MM = Missing Value Source: NWS Daily Summary

Daily Weather History Graph

Daily Weather History Graph

Search for Another Location

Airport or City:

Trip Planner

Search our weather history database for the weather conditions in past years. The results will help you decide how hot, cold, wet, or windy it might be!

Date:

Astronomy

Jul. 23, 2014 Rise Set
Actual Time 6:06 AM MDT 9:00 PM MDT
Civil Twilight 5:32 AM MDT 9:34 PM MDT
Nautical Twilight 4:49 AM MDT 10:17 PM MDT
Astronomical Twilight 3:58 AM MDT 11:07 PM MDT
Moon 3:29 AM MDT (7/23) 6:31 PM MDT (7/23)
Length of Visible Light 16h 01m
Length of Day
14h 53m
Waning Crescent, 9% of the Moon is Illuminated
Jul 23
Waning Crescent
Jul 26
New
Aug 3
First Quarter
Aug 10
Full
Aug 17
Last Quarter

Hourly Weather History & Observations

Time (MDT) Temp. Dew Point Humidity Pressure Visibility Wind Dir Wind Speed Gust Speed Precip Events Conditions
12:53 AM 61.0 °F 51.1 °F 70% 30.02 in 10.0 mi NE 5.8 mph - N/A   Clear
1:53 AM 57.9 °F 52.0 °F 81% 30.00 in 10.0 mi NE 8.1 mph - N/A   Clear
2:53 AM 59.0 °F 50.0 °F 72% 29.98 in 10.0 mi ENE 8.1 mph - N/A   Clear
3:53 AM 57.9 °F 48.9 °F 72% 29.97 in 10.0 mi NNW 3.5 mph - N/A   Clear
4:53 AM 57.0 °F 48.9 °F 74% 29.98 in 10.0 mi ESE 5.8 mph - N/A   Clear
5:53 AM 57.9 °F 46.0 °F 65% 30.00 in 10.0 mi East 6.9 mph - N/A   Clear
6:53 AM 57.0 °F 48.9 °F 74% 30.03 in 10.0 mi Calm Calm - N/A   Clear
7:53 AM 64.9 °F 43.0 °F 45% 30.03 in 10.0 mi SSW 12.7 mph - N/A   Clear
8:53 AM 69.1 °F 50.0 °F 51% 30.06 in 10.0 mi WSW 8.1 mph - N/A   Clear
9:53 AM 72.0 °F 51.1 °F 48% 30.06 in 10.0 mi WSW 10.4 mph - N/A   Clear
10:53 AM 75.9 °F 50.0 °F 40% 30.05 in 10.0 mi SSW 11.5 mph - N/A   Clear
11:53 AM 79.0 °F 46.0 °F 31% 30.06 in 10.0 mi WSW 9.2 mph - N/A   Clear
12:53 PM 82.9 °F 46.9 °F 28% 30.04 in 10.0 mi SSW 8.1 mph - N/A   Clear
1:53 PM 86.0 °F 39.0 °F 19% 30.02 in 10.0 mi WSW 10.4 mph - N/A   Clear
2:53 PM 88.0 °F 39.0 °F 18% 29.99 in 10.0 mi SW 8.1 mph - N/A   Clear
3:53 PM 90.0 °F 42.1 °F 19% 29.96 in 10.0 mi West 9.2 mph - N/A   Clear
4:53 PM 89.1 °F 35.1 °F 15% 29.93 in 10.0 mi WSW 9.2 mph - N/A   Clear
5:53 PM 90.0 °F 35.1 °F 14% 29.90 in 10.0 mi SSE 8.1 mph - N/A   Clear
6:53 PM 89.1 °F 35.1 °F 15% 29.88 in 10.0 mi South 4.6 mph - N/A   Clear
7:53 PM 87.1 °F 39.9 °F 19% 29.85 in 10.0 mi SE 5.8 mph - N/A   Clear
8:53 PM 82.9 °F 37.0 °F 19% 29.83 in 10.0 mi SE 4.6 mph - N/A   Clear
9:53 PM 73.9 °F 46.0 °F 37% 29.84 in 10.0 mi East 4.6 mph - N/A   Clear
10:53 PM 66.0 °F 48.9 °F 54% 29.83 in 10.0 mi Calm Calm - N/A   Clear
11:53 PM 61.0 °F 50.0 °F 67% 29.83 in 10.0 mi Calm Calm - N/A   Clear